Regional Weather Roundup
Issued by NWS Albany, NY

Home | Current Version | Previous Version | Text Only | Print | Product List | Glossary On
Versions: 1 2 3 4 5 6 7 8 9 10 11 12 13 14 15 16 17 18 19 20 21 22 23 24 25 26 27 28 29 30 31 32 33 34 35 36 37 38 39 40 41 42 43 44 45 46 47 48 49 50
000
ASUS41 KALY 292110
RWRALY

NEW YORK STATE HOURLY WEATHER ROUNDUP
NATIONAL WEATHER SERVICE ALBANY NY
400 PM EST THU JAN 29 2015

NOTE: "FAIR" INDICATES FEW OR NO CLOUDS BELOW 12,000 FEET WITH NO
SIGNIFICANT WEATHER AND/OR NO OBSTRUCTIONS TO VISIBILITY.

NYZ032-033-038>043-046>054-057>066-NYZ062>081-292200-
EAST


CITY           SKY/WX    TMP DP  RH WIND       PRES   REMARKS
ALBANY         CLOUDY    30   3  31 S16G23    30.07F WCI  19
GLENS FALLS    CLOUDY    24   5  44 S6        30.06F WCI  17
POUGHKEEPSIE   CLOUDY    30   6  36 W3        30.12F
MONTGOMERY     CLOUDY    27   8  44 W5        30.10F WCI  22
WHITE PLAINS   CLOUDY    28  13  53 SE8       30.13F WCI  20
ISLIP          CLOUDY    30  18  60 S5        30.17F WCI  25
NEW YORK CITY  CLOUDY    30  19  63 S10       30.16F WCI  21
CENTRAL PARK   CLOUDY    30  17  58 MISG      30.18F
$$

NYZ005>009-017-018-044>046-055-056-292200-
CENTRAL


CITY           SKY/WX    TMP DP  RH WIND       PRES   REMARKS
FULTON         CLOUDY    31   8  38 SE9       29.82F WCI  23
SYRACUSE       CLOUDY    34   6  31 SE16      29.85F WCI  24
ROME           CLOUDY    27  11  51 SE8       29.94F WCI  19
ELMIRA         CLOUDY    31   8  38 SW9G25    29.87F WCI  23
BINGHAMTON     CLOUDY    30   2  30 S18G25    29.87F WCI  18
MONTICELLO     CLOUDY    27   7  43 SE14      30.02F WCI  15
$$

NYZ026>034-041>043-292200-
NORTH


CITY           SKY/WX    TMP DP  RH WIND       PRES   REMARKS
WATERTOWN        N/A     38   9  30 S13G32    29.80F WCI  30
FORT DRUM      NOT AVBL
MASSENA        LGT SNOW  23   9  55 NE7       29.94F WCI  15
SARANAC LAKE   CLOUDY    32   2  27 SW17      29.86S WCI  21
PLATTSBURGH    CLOUDY    27  13  55 SE14      29.97F WCI  16
$$

NYZ001>004-010>016-019>021-292200-
WEST


CITY           SKY/WX    TMP DP  RH WIND       PRES   REMARKS
NIAGARA FALLS  LGT SNOW  32  30  92 SW10      29.72F FOG     WCI  24
BUFFALO        LGT SNOW  33  30  88 S16       29.72F FOG     WCI  23
DUNKIRK        LGT SNOW  34  30  85 S23G33    29.72F FOG     WCI  22
JAMESTOWN      CLOUDY    28  27  93 S10       29.72S WCI  19
WELLSVILLE     LGT SNOW  24  18  77 S14G24    29.75F WCI  12
ROCHESTER      LGT SNOW  33  27  78 SW8       29.78R VSB 1   WCI  26
PENN YAN       CLOUDY    32  11  41 S23G32    29.80F WCI  19
$$

             KEY
       WCI = WIND CHILL INDEX
       VSB = VISIBILITY
       HX  = HEAT INDEX
$$



USA.gov is the U.S. government's official web portal to all federal, state and local government web resources and services.